Terug naar catalogus

IUS DEB

LostHEO
NORAD 43362·DEBRIS·🇺🇸 United States

Gelanceerd Jul 23, 1999 vanaf Cape Canaveral Space Force Station

Loading…

Volgende Passages (komende 24 uur)

TLE

VerouderdSource: Space-Track

Epoch: Jun 22, 2026, 06:57 UTC

1 43362U 99040K   26173.28980411 -.00000607  00000-0 -62156-2 0  9999
2 43362  28.0274 190.4649 3645127 122.9407 277.4903  7.08847228268575

Volg IUS DEB in realtime met AllMySat

Download on the App Store